{"data":{"norad_id":69603,"intl_designator":"2026-140M","name":"KUIPER-00528","alt_names":[],"object_type":"PAYLOAD","status":"ACTIVE","operator":null,"country":"US","launch_date":"2026-06-17","launch_site_code":"FRGUI","launch_vehicle":null,"mission":null,"orbit_class":"UNKNOWN","rcs_meters":null,"size_class":null,"mass_kg":null,"dimensions":null,"purposes":[],"wikipedia_slug":null,"has_3d_model":false,"image_url":null,"decayed_at":null,"tle_current":{"epoch":"2026-09-20T04:15:28.213632Z","epoch_age_seconds":56968,"freshness":"FRESH","line1":"1 69603U 26140M   26263.17740988  .00001878  00000+0  27526-3 0  9998","line2":"2 69603  51.9038 318.1388 0000323  66.4370 293.6627 14.79944701 15588","mean_motion":14.79944701,"eccentricity":3.23e-5,"inclination_deg":51.9038,"raan_deg":318.1388,"arg_perigee_deg":66.437,"mean_anomaly_deg":293.6627,"bstar":0.00027526,"rev_number":1558,"period_min":97.300932867761,"perigee_km":629.27234562801,"apogee_km":629.72503889373,"semimajor_km":7007.6356922609,"source":"CELESTRAK","updated_at":"2026-09-20T09:00:25.001489Z"}}}